#timestamp,LO_Frequency,Hit,StdDev 
1563433215.3,286046998.5,N
1563433235.1,286046998.2,N
1563433255.8,286046998.1,N
1563433275.7,286047002.7,N
1563433295.5,286047002.4,N
1563433315.4,286046999.7,N
1563433335.2,286047002.3,N
1563433355.0,286047001.3,N
1563433355.9,286047001.3,N
1563433375.8,286047001.3,N
1563433395.6,286047001.5,N
1563433415.5,286047005.6,Y
1563433435.3,286047006.0,P
1563433455.1,286047005.8,N
1563433475.9,286047004.6,N
1563433495.7,286047005.2,N
1563433515.6,286047007.1,Y
1563433535.4,286047001.0,P
1563433555.2,286047002.8,N
1563433575.1,286047000.2,N
1563433576.0,286047000.2,N
1563433595.8,286046999.4,N
1563433615.7,286046999.2,N
1563433635.5,286046998.3,N
1563433655.3,286047000.8,N
1563433675.2,286047000.7,N
1563433695.0,286047001.0,N
1563433695.9,286047001.0,N
1563433715.7,286047000.7,N
1563433735.6,286046999.0,N
1563433755.4,286046998.2,N
1563433775.3,286046999.4,N
1563433795.1,286046997.1,N
1563433796.0,286046997.1,N
1563433815.8,286046999.1,N
1563433835.7,286046998.2,N
1563433855.5,286046999.4,N
1563433875.4,286046996.5,N
1563433895.2,286046998.9,N
1563433915.0,286046998.9,N
1563433915.9,286046998.9,N
1563433935.8,286046998.4,N
1563433955.6,286046998.3,N
1563433975.5,286046999.3,N
1563433995.3,286046998.4,N
1563434015.1,286046999.6,N
1563434035.9,286046999.2,N
1563434055.7,286046998.4,N
1563434075.5,286046997.8,N
1563434095.4,286046996.7,N
1563434115.2,286046997.1,N
1563434135.1,286046995.8,Y
1563434136.0,286046995.8,P
1563434155.8,286046998.0,N
1563434175.6,286046997.1,N
1563434195.5,286046996.9,N
1563434245.3,286046997.4,E
1563434255.3,286046998.6,N
1563434305.1,286047000.5,E
1563434315.1,286046998.2,N
1563434316.0,286046998.2,P
1563434335.8,286047001.1,P
1563434355.6,286046999.1,N
1563434375.5,286046997.7,N
1563434395.3,286046997.2,N
1563434415.1,286046998.0,N
1563434435.9,286046996.6,N
1563434455.7,286046997.7,N
1563434475.6,286046998.0,N
1563434495.4,286046997.2,N
1563434515.2,286046996.6,Y
1563434535.1,286046999.3,P
1563434536.0,286046999.3,N
1563434555.8,286046998.6,N
1563434575.7,286046996.8,Y
1563434595.5,286046998.1,P
1563434615.3,286046999.1,N
1563434635.2,286046997.1,P
1563434655.0,286046999.6,N
1563434655.9,286046999.6,N
1563434675.8,286046999.3,N
1563434695.6,286046997.2,Y
1563434715.4,286046999.4,P
1563434735.3,286046999.1,P
1563434755.1,286046999.8,N
1563434775.9,286046998.8,Y
1563434795.7,286047002.8,P
1563434815.5,286047000.7,N
1563434835.4,286046999.0,N
1563434855.2,286047000.2,N
1563434875.1,286047001.2,N
1563434876.0,286047001.2,N
1563434895.8,286046998.3,N
1563434915.6,286046998.8,N
1563434935.5,286047000.1,N
1563434955.3,286047001.0,N
1563434975.2,286047000.3,N
1563434995.9,286046998.9,N
1563435015.7,286046999.0,N
1563435035.6,286046998.6,N
1563435055.4,286046996.9,N
1563435075.2,286046996.9,N
1563435095.1,286046999.3,N
1563435096.0,286046999.3,N
1563435115.8,286046998.6,N
1563435135.7,286046998.6,N
1563435155.5,286047001.2,N
1563435175.3,286047000.5,N
1563435195.2,286047002.1,N
1563435215.0,286047001.4,N
1563435215.9,286047001.4,N
1563435235.8,286047001.6,N
1563435255.6,286047002.9,N
1563435275.4,286047003.1,N
1563435295.3,286047003.3,N
1563435315.1,286047001.4,N
1563435335.8,286047002.5,N
1563435355.7,286047000.2,N
1563435375.5,286047000.4,N
1563435395.4,286046998.7,N
1563435415.2,286046998.3,N
1563435435.0,286047002.0,N
1563435435.9,286047002.0,N
1563435455.8,286047001.7,N
1563435475.6,286047001.7,N
1563435495.5,286047002.0,N
1563435515.3,286047002.1,N
1563435535.1,286047004.0,N
1563435555.9,286047002.4,N
1563435575.7,286047002.5,N
1563435595.6,286047002.8,N
1563435615.4,286047000.5,N
1563435635.2,286047000.5,N
1563435655.1,286046998.1,N
1563435656.0,286046998.1,N
1563435675.8,286047000.3,N
1563435695.6,286047004.4,N
1563435715.5,286047004.1,N
1563435735.3,286047003.1,N
1563435755.2,286047003.5,N
1563435775.9,286047001.7,N
1563435795.7,286047004.2,N
1563435815.6,286047003.9,N
1563435835.4,286047002.6,N
1563435855.3,286047002.6,N
1563435875.1,286047002.4,N
1563435876.0,286047002.4,N
1563435925.9,286046999.9,E
1563435935.8,286047002.7,N
1563435955.6,286047002.2,P
1563435975.5,286047002.1,P
1563435995.3,286046999.8,N
1563436015.1,286047002.2,N
1563436035.9,286047001.4,N
1563436055.7,286047001.9,N
1563436075.6,286047003.4,Y
1563436095.4,286047002.7,P
1563436115.2,286047001.6,P
1563436135.1,286047002.1,P
1563436136.0,286047002.1,Y
1563436155.8,286046998.1,P
1563436175.7,286046999.6,N
1563436195.5,286046998.4,N
1563436215.3,286047001.2,N
1563436235.2,286046996.8,N
1563436255.0,286046998.5,N
1563436255.9,286046998.5,N
1563436275.7,286046998.8,N
1563436295.6,286046998.2,N
1563436315.4,286046999.0,N
1563436335.3,286046999.1,N
1563436355.1,286047000.6,N
1563436356.0,286047000.6,N
1563436375.8,286047000.8,N
1563436395.7,286047001.2,N
1563436415.5,286046998.7,N
1563436435.4,286047000.0,N
1563436455.2,286046998.3,N
1563436475.0,286046998.4,N
1563436475.9,286046998.4,N
1563436495.8,286046998.3,N
1563436515.6,286046996.5,N
1563436535.4,286046996.8,N
1563436555.3,286046996.6,N
1563436575.1,286046998.8,N
1563436595.9,286046999.6,N
1563436615.7,286046999.6,N
1563436635.5,286046999.1,N
1563436655.4,286046996.6,N
1563436675.2,286046994.9,Y
1563436695.1,286046997.1,P
1563436696.0,286046997.1,P
1563436715.8,286046999.1,N
1563436735.6,286046998.7,N
1563436755.5,286046998.6,N
1563436775.3,286047000.1,N
1563436795.2,286047002.7,N
